Waarnemingen

Advertentie
Mijn weer
Finisterre, Spanje (8040): temperatuur & dauwpunt: 16.08.2018 01:00:00 - 22.08.2018 01:00:00 (CEST)Finisterre, Spanje (8040): windsnelheid & windstoten: 16.08.2018 01:00:00 - 22.08.2018 01:00:00 (CEST)Finisterre, Spanje (8040): windrichting: 16.08.2018 01:00:00 - 22.08.2018 01:00:00 (CEST)Finisterre, Spanje (8040): luchtdruk: 16.08.2018 01:00:00 - 22.08.2018 01:00:00 (CEST)Finisterre, Spanje (8040): zicht: 16.08.2018 01:00:00 - 22.08.2018 01:00:00 (CEST)Finisterre, Spanje (8040): Zonneschijnduur: 16.08.2018 01:00:00 - 22.08.2018 01:00:00 (CEST)Finisterre, Spanje (8040): neerslag: 16.08.2018 01:00:00 - 22.08.2018 01:00:00 (CEST)
Datum & Tijd tt [°C] td [°C] ff [km/u] ff [kn] fx [km/u] fx [kn] dd ppp [hPa] vv [km] sd [min] rr [mm]
22.08.2018 01:00:00 - - - - - - - - - - -
22.08.2018 00:00:00 27,9 7,1 16 8 20 11 ONO 1013,4 16 0 0,0
21.08.2018 23:00:00 27,4 8,8 13 7 16 9 NO 1013,5 20 0 0,0
21.08.2018 22:00:00 27,1 8,0 11 6 13 7 NO 1013,1 20 3 0,0
21.08.2018 21:00:00 27,7 8,0 10 5 17 9 NNO 1012,7 20 60 0,0
21.08.2018 20:00:00 29,3 6,7 11 6 18 10 N 1012,7 20 56 -
21.08.2018 19:00:00 28,8 8,5 14 8 19 10 N 1013,1 17 60 0,0
21.08.2018 18:00:00 29,2 8,8 12 7 18 10 N 1013,1 15 60 0,0
21.08.2018 17:00:00 31,4 9,6 9 5 13 7 NW 1013,3 20 60 0,0
21.08.2018 16:00:00 31,2 8,8 6 3 13 7 NW 1013,9 17 60 0,0
21.08.2018 15:00:00 31,9 10,0 8 4 14 8 WZW 1013,9 17 54 0,0
21.08.2018 14:00:00 31,7 12,0 5 3 10 5 WZW 1013,9 15 60 -
21.08.2018 13:00:00 30,6 12,0 2 1 11 6 WNW 1014,2 15 60 0,0
21.08.2018 12:00:00 28,8 11,8 2 1 9 5 NNW 1014,5 16 60 0,0
21.08.2018 11:00:00 28,6 12,1 3 2 7 4 ZW 1014,3 19 55 0,0
21.08.2018 10:00:00 28,2 10,9 5 3 8 4 ZZO 1014,3 19 57 0,0
21.08.2018 09:00:00 26,8 10,0 7 4 14 8 OZO 1014,0 17 25 0,0
21.08.2018 08:00:00 25,4 10,4 9 5 16 9 ZO 1013,9 17 0 -
21.08.2018 07:00:00 25,8 10,4 12 6 23 12 ZO 1013,6 18 0 0,0
21.08.2018 06:00:00 24,7 11,2 18 10 28 15 OZO 1013,7 17 0 0,0
21.08.2018 05:00:00 24,9 11,1 18 10 32 17 O 1013,7 16 0 0,0
21.08.2018 04:00:00 23,6 12,5 25 14 32 18 O 1014,1 18 0 0,0
21.08.2018 03:00:00 23,7 11,3 23 12 36 19 O 1014,6 20 0 0,0
21.08.2018 02:00:00 23,8 10,8 24 13 43 23 O 1015,1 20 0 -
21.08.2018 01:00:00 23,2 11,9 27 15 44 24 O 1015,5 19 0 0,0
21.08.2018 00:00:00 23,3 13,2 28 15 48 26 O 1015,5 20 0 0,0
20.08.2018 23:00:00 23,7 14,4 30 16 40 22 O 1015,7 20 0 0,0
20.08.2018 22:00:00 24,0 14,7 30 16 46 25 O 1015,6 20 0 0,0
20.08.2018 21:00:00 24,9 15,3 34 18 50 27 O 1015,1 20 58 0,0
20.08.2018 20:00:00 25,4 16,0 33 18 42 23 ONO 1015,2 20 56 -
20.08.2018 19:00:00 26,7 16,9 29 15 40 21 ONO 1015,3 17 60 0,0
20.08.2018 18:00:00 28,2 17,4 23 12 33 18 ONO 1015,7 19 60 0,0
20.08.2018 17:00:00 29,9 17,4 21 11 35 19 ONO 1016,1 20 60 0,0
20.08.2018 16:00:00 30,1 16,9 22 12 33 18 O 1016,7 17 60 0,0
20.08.2018 15:00:00 30,5 16,9 18 10 31 17 O 1016,9 20 53 0,0
20.08.2018 14:00:00 29,4 15,9 20 11 31 17 ONO 1017,3 20 60 -
20.08.2018 13:00:00 28,8 15,0 16 9 35 19 O 1017,6 20 60 0,0
20.08.2018 12:00:00 26,1 14,2 26 14 39 21 O 1017,9 20 60 0,0
20.08.2018 11:00:00 23,9 13,2 28 15 42 23 O 1018,0 19 57 0,0
20.08.2018 10:00:00 22,9 11,3 22 12 43 23 O 1018,3 20 55 0,0
20.08.2018 09:00:00 22,1 9,9 27 15 44 24 O 1018,0 19 26 0,0
20.08.2018 08:00:00 21,6 9,4 34 18 52 28 O 1017,9 20 0 -
20.08.2018 07:00:00 22,0 8,8 31 17 58 31 O 1017,7 20 0 0,0
20.08.2018 06:00:00 22,2 8,0 37 20 57 31 O 1017,5 20 0 0,0
20.08.2018 05:00:00 22,2 7,6 36 19 50 27 O 1017,9 20 0 0,0
20.08.2018 04:00:00 22,5 7,8 38 21 52 28 O 1017,9 20 0 0,0
20.08.2018 03:00:00 21,7 9,3 30 16 49 26 ONO 1018,5 20 0 0,0
20.08.2018 02:00:00 19,3 12,1 28 15 44 24 NO 1018,9 17 0 -
20.08.2018 01:00:00 22,6 9,7 21 11 49 27 ONO 1018,9 20 0 0,0
20.08.2018 00:00:00 23,4 9,0 19 11 45 24 ONO 1019,0 20 0 0,0
19.08.2018 23:00:00 21,4 12,2 22 12 42 23 NO 1019,1 18 0 0,0
19.08.2018 22:00:00 23,0 12,0 23 13 48 26 NO 1018,6 20 0 0,0
19.08.2018 21:00:00 22,2 13,6 23 13 49 27 NO 1018,4 17 29 0,0
19.08.2018 20:00:00 23,0 13,2 27 14 48 26 NNO 1018,2 17 55 -
19.08.2018 19:00:00 26,6 11,9 24 13 45 25 NO 1018,0 20 60 0,0
19.08.2018 18:00:00 27,0 11,9 22 12 45 25 NNO 1018,1 20 60 0,0
19.08.2018 17:00:00 25,7 13,6 24 13 39 21 NO 1018,3 19 60 0,0
19.08.2018 16:00:00 26,8 13,2 33 18 38 21 NO 1018,3 16 60 0,0
19.08.2018 15:00:00 28,3 10,9 13 7 37 20 NNO 1018,5 20 52 0,0
19.08.2018 14:00:00 30,9 5,3 18 10 37 20 O 1018,4 20 60 -
19.08.2018 13:00:00 29,3 5,3 14 7 48 26 O 1018,9 20 60 0,0
19.08.2018 12:00:00 27,0 5,3 16 9 33 18 O 1019,0 20 60 0,0
19.08.2018 11:00:00 22,1 7,4 9 5 35 19 NO 1019,2 20 57 0,0
19.08.2018 10:00:00 23,2 0,9 22 12 39 21 ONO 1018,9 20 55 0,0
19.08.2018 09:00:00 22,9 -1,2 13 7 35 19 O 1018,8 20 27 0,0
19.08.2018 08:00:00 20,9 1,7 13 7 40 21 ONO 1018,4 20 0 -
19.08.2018 07:00:00 20,5 0,4 8 4 36 19 O 1018,2 20 0 0,0
19.08.2018 06:00:00 21,1 1,9 17 9 31 17 O 1018,0 20 0 0,0
19.08.2018 05:00:00 20,2 4,3 17 9 41 22 ONO 1018,4 20 0 0,0
19.08.2018 04:00:00 20,7 3,4 9 5 47 25 ZO 1018,4 20 0 0,0
19.08.2018 03:00:00 21,2 3,4 29 16 55 30 O 1018,0 20 0 0,0
19.08.2018 02:00:00 20,2 6,1 25 14 46 25 O 1018,1 20 0 -
19.08.2018 01:00:00 17,1 11,6 11 6 37 20 N 1019,0 20 0 0,0
19.08.2018 00:00:00 20,0 9,3 11 6 42 23 O 1018,6 20 0 0,0
18.08.2018 23:00:00 20,7 10,2 27 15 46 25 ONO 1018,2 20 0 0,0
18.08.2018 22:00:00 21,1 12,0 19 10 45 24 NO 1017,9 20 5 0,0
18.08.2018 21:00:00 21,7 12,5 23 12 36 19 NO 1017,4 20 60 0,0
18.08.2018 20:00:00 22,6 13,4 18 10 34 19 NNO 1017,5 20 56 -
18.08.2018 19:00:00 23,5 13,9 10 5 32 18 N 1017,7 17 60 0,0
18.08.2018 18:00:00 24,1 13,9 26 14 41 22 NO 1017,5 20 60 0,0
18.08.2018 17:00:00 24,1 13,7 23 12 39 21 NO 1017,7 17 60 0,0
18.08.2018 16:00:00 24,8 13,9 29 15 37 20 NO 1018,0 13 60 0,0
18.08.2018 15:00:00 23,7 13,3 25 13 33 18 NO 1018,5 20 55 0,0
18.08.2018 14:00:00 24,4 12,0 18 10 38 21 NNO 1018,8 20 60 -
18.08.2018 13:00:00 24,5 10,8 14 8 35 19 OZO 1019,2 20 60 0,0
18.08.2018 12:00:00 22,1 10,5 16 9 48 26 O 1019,5 20 60 0,0
18.08.2018 11:00:00 20,2 10,3 23 12 45 25 O 1019,6 20 56 0,0
18.08.2018 10:00:00 18,8 9,8 26 14 46 25 O 1019,3 20 55 0,0
18.08.2018 09:00:00 17,0 10,2 16 9 39 21 ONO 1019,4 20 42 0,0
18.08.2018 08:00:00 15,5 11,1 13 7 36 20 NNO 1019,5 10 0 -
18.08.2018 07:00:00 15,3 11,3 13 7 41 22 NNO 1019,3 11 0 0,0
18.08.2018 06:00:00 16,0 11,6 24 13 61 33 NO 1019,2 4,7 0 0,0
18.08.2018 05:00:00 15,6 12,0 27 14 57 31 NO 1019,1 16 0 0,0
18.08.2018 04:00:00 15,4 12,1 29 16 58 32 NO 1019,6 14 0 0,0
18.08.2018 03:00:00 15,6 11,8 25 14 49 27 ONO 1020,2 20 0 0,0
18.08.2018 02:00:00 15,7 12,1 23 12 55 30 O 1020,7 20 0 -
18.08.2018 01:00:00 16,0 12,3 29 16 54 29 ONO 1021,0 20 0 0,0
18.08.2018 00:00:00 16,0 12,3 31 17 63 34 NO 1021,1 17 0 0,0
17.08.2018 23:00:00 16,0 12,0 32 18 59 32 NO 1020,9 20 0 0,0
17.08.2018 22:00:00 16,3 12,1 34 18 64 35 NO 1020,4 18 13 0,0
17.08.2018 21:00:00 17,3 12,0 40 22 66 35 NO 1019,9 18 60 0,0
17.08.2018 20:00:00 18,6 12,8 22 12 56 31 NNO 1020,4 13 55 -
17.08.2018 19:00:00 19,4 12,8 31 17 55 30 NO 1020,7 17 60 0,0
17.08.2018 18:00:00 19,4 13,2 34 18 58 32 NNO 1020,4 14 60 0,0
17.08.2018 17:00:00 19,9 12,8 27 15 59 32 NNO 1021,2 18 60 0,0
17.08.2018 16:00:00 20,5 12,4 31 17 64 34 NO 1021,8 15 60 0,0
17.08.2018 15:00:00 20,1 11,6 32 18 64 35 NO 1022,1 20 56 0,0
17.08.2018 14:00:00 20,1 12,1 25 13 63 34 NO 1022,3 20 60 -
17.08.2018 13:00:00 19,4 11,4 34 18 65 35 NO 1022,2 20 60 0,0
17.08.2018 12:00:00 18,4 11,4 40 22 69 37 NO 1022,3 16 60 0,0
17.08.2018 11:00:00 17,5 11,8 37 20 59 32 NO 1022,6 14 60 0,0
17.08.2018 10:00:00 16,5 12,0 31 17 62 34 NO 1022,6 20 53 0,0
17.08.2018 09:00:00 15,4 12,5 29 16 47 25 NO 1022,6 17 19 0,0
17.08.2018 08:00:00 15,0 12,3 29 16 50 27 NO 1022,4 20 0 -
17.08.2018 07:00:00 15,0 11,8 39 21 55 30 NO 1021,9 19 0 0,0
17.08.2018 06:00:00 14,9 11,7 36 19 53 29 NNO 1021,8 18 0 0,0
17.08.2018 05:00:00 14,9 11,3 35 19 51 28 NO 1021,8 18 0 0,0
17.08.2018 04:00:00 15,0 11,2 36 19 54 29 NO 1021,7 17 0 0,0
17.08.2018 03:00:00 15,0 11,2 36 20 51 28 NO 1021,9 20 0 0,0
17.08.2018 02:00:00 15,2 12,0 36 19 55 30 NO 1022,2 17 0 -
17.08.2018 01:00:00 15,7 12,6 36 19 56 31 NO 1021,9 16 0 0,0
17.08.2018 00:00:00 16,1 13,6 38 20 56 31 NO 1021,6 16 0 0,0
16.08.2018 23:00:00 16,4 14,6 36 19 66 35 NNO 1021,2 13 0 0,0
16.08.2018 22:00:00 16,4 15,4 40 22 55 30 NNO 1020,5 7 0 0,0
16.08.2018 21:00:00 17,2 15,2 29 16 55 30 NNO 1020,0 14 12 0,0
16.08.2018 20:00:00 - - - - - - - - - - -
16.08.2018 19:00:00 18,1 16,2 32 18 58 31 NNO 1019,6 20 54 0,0
16.08.2018 18:00:00 18,0 15,8 35 19 63 34 NNO 1019,4 20 60 0,0
16.08.2018 17:00:00 18,2 16,0 39 21 57 31 N 1019,6 20 60 0,0
16.08.2018 16:00:00 18,4 15,6 39 21 58 31 NNO 1019,5 17 60 0,0
16.08.2018 15:00:00 18,1 15,2 36 20 54 29 NNO 1019,4 20 58 0,0
16.08.2018 14:00:00 18,9 15,5 30 16 53 28 NNO 1019,3 20 42 -
16.08.2018 13:00:00 17,4 15,3 33 18 59 32 NNO 1019,6 17 23 0,0
16.08.2018 12:00:00 17,0 15,7 35 19 52 28 NNO 1019,4 2,6 40 0,0
16.08.2018 11:00:00 17,1 15,4 32 17 53 29 NNO 1019,0 19 17 0,0
16.08.2018 10:00:00 16,6 15,6 37 20 61 33 NNO 1018,8 14 0 0,0
16.08.2018 09:00:00 16,8 16,1 26 14 58 31 NNO 1018,4 12 4 0,0
16.08.2018 08:00:00 16,7 16,0 35 19 59 32 NNO 1017,9 10 0 -
16.08.2018 07:00:00 16,8 16,1 31 17 48 26 NNO 1017,4 0,2 0 0,0
16.08.2018 06:00:00 16,9 16,3 32 18 50 27 NNO - - 0 0,0
16.08.2018 05:00:00 17,1 16,5 32 17 50 27 NNO 1016,9 0,2 0 0,0
16.08.2018 04:00:00 17,2 16,4 37 20 52 28 NNO 1016,9 0,9 0 0,0
16.08.2018 03:00:00 17,6 16,6 26 14 55 30 NNO 1017,1 9 0 0,0
16.08.2018 02:00:00 17,9 16,6 29 16 61 33 NNO 1016,7 13 0 -
16.08.2018 01:00:00 18,2 16,7 34 19 66 35 NNO 1016,4 13 0 0,0

tt = temperatuur
td = dauwpunt
ff = windsnelheid
fx = windstoten
dd = windrichting
ppp = luchtdruk
vv = zicht
sd = Zonneschijnduur
rr = neerslag

Weerstations in de omgeving